| time (UTC) | temp F | wind direction | speed knots | gust knots | rain 1hr in | rain 24hr in | rain mn in | humidity % | barometer mb |
| 20260507040752 | 55 | 34 | 3.5 | 6.1 | 0.00 | 0.00 | 0.00 | 93 | 1009.3 |
| 20260507035738 | 55 | 338 | 4.3 | 7.8 | 0.00 | 0.00 | 0.00 | 93 | 1009.5 |
| 20260507034724 | 56 | 282 | 2.6 | 8.7 | 0.00 | 0.00 | 0.00 | 93 | 1009.0 |
| 20260507033730 | 57 | 304 | 5.2 | 6.1 | 0.00 | 0.00 | 0.00 | 93 | 1009.0 |
| 20260507032657 | 60 | 289 | 3.5 | 6.1 | 0.00 | 0.00 | 0.00 | 93 | 1008.7 |
| 20260507031643 | 61 | 278 | 6.1 | 7.0 | 0.00 | 0.00 | 0.00 | 93 | 1008.7 |
| 20260507030629 | 61 | 217 | 0.9 | 3.5 | 0.00 | 0.00 | 0.00 | 93 | 1008.6 |
| 20260507025616 | 61 | 330 | 3.5 | 5.2 | 0.00 | 0.00 | 0.00 | 92 | 1008.5 |
| 20260507024602 | 62 | 230 | 0.9 | 3.5 | 0.00 | 0.00 | 0.00 | 92 | 1008.4 |
| 20260507023548 | 62 | 282 | 2.6 | 3.5 | 0.00 | 0.00 | 0.00 | 94 | 1008.6 |
| 20260507022534 | 63 | 338 | 2.6 | 5.2 | 0.00 | 0.00 | 0.00 | 95 | 1008.7 |
| 20260507021520 | 63 | 0.0 | 1.7 | 0.00 | 0.00 | 0.00 | 94 | 1008.5 | |
| 20260507020507 | 64 | 233 | 4.3 | 6.1 | 0.00 | 0.00 | 0.00 | 92 | 1008.7 |
| 20260507015452 | 65 | 236 | 3.5 | 5.2 | 0.00 | 0.00 | 0.00 | 89 | 1008.5 |
| 20260507014439 | 65 | 213 | 2.6 | 3.5 | 0.00 | 0.00 | 0.00 | 86 | 1008.5 |
| 20260507013425 | 65 | 222 | 1.7 | 2.6 | 0.00 | 0.00 | 0.00 | 86 | 1008.2 |
| 20260507012411 | 65 | 201 | 1.7 | 1.7 | 0.00 | 0.00 | 0.00 | 86 | 1008.4 |
| 20260507011357 | 65 | 213 | 0.9 | 2.6 | 0.00 | 0.00 | 0.00 | 86 | 1008.0 |
| 20260507010343 | 66 | 196 | 1.7 | 1.7 | 0.00 | 0.00 | 0.00 | 85 | 1008.0 |
| 20260507005329 | 66 | 208 | 1.7 | 2.6 | 0.00 | 0.00 | 0.00 | 85 | 1008.3 |
| 20260507004315 | 66 | 211 | 0.9 | 1.7 | 0.00 | 0.00 | 0.00 | 85 | 1008.1 |
| 20260507003301 | 66 | 227 | 2.6 | 3.5 | 0.00 | 0.00 | 0.00 | 84 | 1007.8 |
| 20260507002247 | 66 | 223 | 1.7 | 2.6 | 0.00 | 0.00 | 0.00 | 84 | 1007.5 |
| 20260507001235 | 66 | 217 | 3.5 | 3.5 | 0.00 | 0.00 | 0.00 | 84 | 1007.5 |
| 20260507000222 | 66 | 190 | 3.5 | 3.5 | 0.00 | 0.00 | 0.00 | 83 | 1007.4 |
| 20260506235247 | 66 | 260 | 1.7 | 5.2 | 0.00 | 0.00 | 0.00 | 83 | 1007.5 |
| 20260506234153 | 66 | 196 | 2.6 | 5.2 | 0.00 | 0.00 | 0.00 | 83 | 1007.4 |
| 20260506233139 | 67 | 239 | 3.5 | 6.1 | 0.00 | 0.00 | 0.00 | 83 | 1007.4 |
| 20260506232126 | 67 | 185 | 1.7 | 2.6 | 0.00 | 0.00 | 0.00 | 81 | 1007.2 |
| 20260506231112 | 67 | 202 | 4.3 | 5.2 | 0.00 | 0.00 | 0.00 | 81 | 1007.2 |
| 20260506230058 | 67 | 240 | 3.5 | 5.2 | 0.00 | 0.00 | 0.00 | 81 | 1007.3 |
| 20260506225104 | 68 | 190 | 2.6 | 2.6 | 0.00 | 0.00 | 0.00 | 81 | 1007.2 |
| 20260506224031 | 68 | 213 | 0.9 | 3.5 | 0.00 | 0.00 | 0.00 | 81 | 1007.2 |
| 20260506223017 | 67 | 216 | 1.7 | 5.2 | 0.00 | 0.00 | 0.00 | 82 | 1007.2 |
| 20260506222004 | 67 | 223 | 1.7 | 3.5 | 0.00 | 0.00 | 0.00 | 82 | 1007.2 |
| 20260506220949 | 67 | 219 | 3.5 | 7.0 | 0.00 | 0.00 | 0.00 | 82 | 1007.4 |
| 20260506215936 | 68 | 206 | 3.5 | 7.0 | 0.00 | 0.00 | 0.00 | 81 | 1007.1 |
| 20260506214923 | 68 | 154 | 4.3 | 6.1 | 0.00 | 0.00 | 0.00 | 80 | 1007.2 |
| 20260506213928 | 68 | 195 | 1.7 | 6.1 | 0.00 | 0.00 | 0.00 | 81 | 1006.8 |
| 20260506212854 | 67 | 224 | 3.5 | 6.1 | 0.00 | 0.00 | 0.00 | 81 | 1007.1 |
| 20260506211842 | 67 | 208 | 2.6 | 5.2 | 0.00 | 0.00 | 0.00 | 82 | 1006.9 |
| 20260506210827 | 66 | 207 | 1.7 | 7.0 | 0.00 | 0.00 | 0.00 | 83 | 1006.9 |
| 20260506205813 | 66 | 221 | 2.6 | 5.2 | 0.00 | 0.00 | 0.00 | 83 | 1006.8 |
| 20260506204759 | 66 | 208 | 5.2 | 7.0 | 0.00 | 0.00 | 0.00 | 83 | 1007.0 |
| 20260506203745 | 65 | 199 | 3.5 | 8.7 | 0.00 | 0.00 | 0.00 | 85 | 1006.6 |
| 20260506202732 | 65 | 243 | 3.5 | 5.2 | 0.00 | 0.00 | 0.00 | 85 | 1006.7 |
| 20260506201719 | 65 | 212 | 1.7 | 5.2 | 0.00 | 0.00 | 0.00 | 85 | 1006.9 |
| 20260506200726 | 64 | 224 | 2.6 | 6.1 | 0.00 | 0.00 | 0.00 | 86 | 1006.9 |
| 20260506195651 | 64 | 247 | 2.6 | 8.7 | 0.00 | 0.00 | 0.00 | 86 | 1007.0 |
| 20260506194637 | 64 | 178 | 7.0 | 8.7 | 0.00 | 0.00 | 0.00 | 87 | 1006.9 |
| 20260506194146 | 64 | 213 | 7.0 | 8.7 | 0.00 | 0.00 | 0.00 | 87 | 1007.0 |
| 20260506193134 | 63 | 155 | 0.9 | 7.0 | 0.00 | 0.00 | 0.00 | 89 | 1007.1 |
| 20260506192059 | 63 | 216 | 3.5 | 9.6 | 0.00 | 0.00 | 0.00 | 89 | 1007.4 |
| 20260506191105 | 62 | 245 | 5.2 | 11.3 | 0.00 | 0.00 | 0.00 | 89 | 1007.4 |
| 20260506190033 | 62 | 217 | 3.5 | 6.1 | 0.00 | 0.00 | 0.00 | 89 | 1007.6 |
| 20260506185016 | 62 | 245 | 3.5 | 5.2 | 0.00 | 0.00 | 0.00 | 89 | 1007.4 |
| 20260506184003 | 62 | 212 | 1.7 | 7.0 | 0.00 | 0.00 | 0.00 | 90 | 1007.7 |
| 20260506182948 | 62 | 198 | 2.6 | 12.2 | 0.00 | 0.00 | 0.00 | 91 | 1007.6 |
| 20260506182016 | 61 | 218 | 6.1 | 8.7 | 0.00 | 0.00 | 0.00 | 92 | 1007.7 |
| 20260506180922 | 61 | 209 | 3.5 | 5.2 | 0.00 | 0.00 | 0.00 | 93 | 1007.7 |
| 20260506175907 | 62 | 198 | 2.6 | 7.8 | 0.00 | 0.00 | 0.00 | 91 | 1007.9 |
| 20260506174854 | 62 | 217 | 3.5 | 11.3 | 0.00 | 0.00 | 0.00 | 90 | 1008.0 |
| 20260506173841 | 62 | 184 | 3.5 | 8.7 | 0.00 | 0.00 | 0.00 | 91 | 1008.0 |
| 20260506172850 | 62 | 238 | 3.5 | 7.8 | 0.00 | 0.00 | 0.00 | 91 | 1007.9 |
| 20260506171812 | 61 | 190 | 7.0 | 9.6 | 0.00 | 0.00 | 0.00 | 92 | 1008.2 |
| 20260506170758 | 61 | 218 | 5.2 | 12.2 | 0.00 | 0.00 | 0.00 | 93 | 1008.0 |
| 20260506165744 | 62 | 216 | 0.9 | 8.7 | 0.00 | 0.00 | 0.00 | 93 | 1007.8 |
| 20260506164729 | 62 | 186 | 6.1 | 8.7 | 0.00 | 0.00 | 0.00 | 93 | 1007.8 |
| 20260506163717 | 61 | 194 | 6.1 | 8.7 | 0.00 | 0.00 | 0.00 | 93 | 1008.1 |
| 20260506162721 | 61 | 187 | 3.5 | 7.0 | 0.00 | 0.00 | 0.00 | 93 | 1007.9 |
| 20260506161648 | 61 | 202 | 0.9 | 7.8 | 0.00 | 0.00 | 0.00 | 93 | 1008.5 |
| 20260506160634 | 61 | 180 | 3.5 | 6.1 | 0.00 | 0.00 | 0.00 | 93 | 1008.9 |
| 20260506155621 | 61 | 191 | 6.1 | 7.8 | 0.00 | 0.00 | 0.00 | 92 | 1009.4 |
| 20260506154626 | 61 | 205 | 3.5 | 7.0 | 0.00 | 0.00 | 0.00 | 92 | 1009.4 |
| 20260506153614 | 61 | 228 | 3.5 | 7.8 | 0.00 | 0.00 | 0.00 | 91 | 1009.3 |
| 20260506152539 | 61 | 177 | 2.6 | 9.6 | 0.00 | 0.00 | 0.00 | 89 | 1009.1 |
| 20260506151525 | 62 | 188 | 1.7 | 3.5 | 0.00 | 0.00 | 0.00 | 88 | 1008.8 |
| 20260506150511 | 62 | 217 | 2.6 | 6.1 | 0.00 | 0.00 | 0.00 | 88 | 1009.4 |
| 20260506145457 | 63 | 209 | 5.2 | 7.8 | 0.00 | 0.00 | 0.00 | 85 | 1009.1 |
| 20260506144443 | 63 | 135 | 3.5 | 6.1 | 0.00 | 0.00 | 0.00 | 85 | 1009.1 |
| 20260506143429 | 63 | 201 | 2.6 | 7.8 | 0.00 | 0.00 | 0.00 | 82 | 1009.3 |
| 20260506142415 | 64 | 232 | 4.3 | 7.8 | 0.00 | 0.00 | 0.00 | 79 | 1009.3 |
| 20260506141403 | 66 | 217 | 6.1 | 9.6 | 0.00 | 0.00 | 0.00 | 75 | 1009.3 |
| 20260506140347 | 66 | 207 | 0.9 | 8.7 | 0.00 | 0.00 | 0.00 | 74 | 1008.8 |
| 20260506135353 | 67 | 171 | 5.2 | 7.8 | 0.00 | 0.00 | 0.00 | 73 | 1009.0 |
| 20260506134319 | 66 | 188 | 3.5 | 12.2 | 0.00 | 0.00 | 0.00 | 74 | 1008.9 |
| 20260506133307 | 65 | 177 | 3.5 | 11.3 | 0.00 | 0.00 | 0.00 | 75 | 1009.1 |
| 20260506132252 | 66 | 258 | 6.1 | 11.3 | 0.00 | 0.00 | 0.00 | 74 | 1009.1 |
| 20260506131238 | 66 | 250 | 3.5 | 14.8 | 0.00 | 0.00 | 0.00 | 74 | 1009.3 |
| 20260506130245 | 66 | 228 | 6.1 | 8.7 | 0.00 | 0.00 | 0.00 | 74 | 1009.4 |
| 20260506125210 | 66 | 245 | 7.0 | 12.2 | 0.00 | 0.00 | 0.00 | 73 | 1009.4 |
| 20260506124218 | 66 | 206 | 5.2 | 8.7 | 0.00 | 0.00 | 0.00 | 73 | 1009.0 |
| 20260506123144 | 65 | 243 | 3.5 | 11.3 | 0.00 | 0.00 | 0.00 | 75 | 1009.0 |
| 20260506122131 | 65 | 161 | 2.6 | 7.0 | 0.00 | 0.00 | 0.00 | 76 | 1009.0 |
| 20260506121116 | 65 | 191 | 5.2 | 9.6 | 0.00 | 0.00 | 0.00 | 76 | 1008.8 |
| 20260506115049 | 64 | 185 | 5.2 | 7.0 | 0.00 | 0.00 | 0.00 | 78 | 1008.9 |
| 20260506114035 | 64 | 176 | 5.2 | 8.7 | 0.00 | 0.00 | 0.00 | 79 | 1008.8 |
| 20260506113021 | 64 | 212 | 5.2 | 9.6 | 0.00 | 0.00 | 0.00 | 79 | 1008.9 |
| 20260506112008 | 63 | 208 | 4.3 | 7.0 | 0.00 | 0.00 | 0.00 | 80 | 1008.8 |
| 20260506110954 | 63 | 179 | 3.5 | 9.6 | 0.00 | 0.00 | 0.00 | 80 | 1009.0 |
| 20260506105940 | 63 | 173 | 7.0 | 9.6 | 0.00 | 0.00 | 0.00 | 80 | 1008.9 |
| 20260506104926 | 63 | 212 | 3.5 | 3.5 | 0.00 | 0.00 | 0.00 | 81 | 1008.9 |
| 20260506103913 | 63 | 202 | 2.6 | 7.8 | 0.00 | 0.00 | 0.00 | 81 | 1008.7 |
| 20260506102920 | 63 | 177 | 2.6 | 7.0 | 0.00 | 0.00 | 0.00 | 81 | 1008.7 |
| 20260506101846 | 63 | 197 | 3.5 | 11.3 | 0.00 | 0.00 | 0.00 | 81 | 1008.8 |
| 20260506100833 | 63 | 190 | 1.7 | 6.1 | 0.00 | 0.00 | 0.00 | 81 | 1008.8 |
| 20260506095819 | 63 | 183 | 0.9 | 7.0 | 0.00 | 0.00 | 0.00 | 81 | 1009.0 |
| 20260506094805 | 63 | 175 | 3.5 | 5.2 | 0.00 | 0.00 | 0.00 | 81 | 1009.0 |
| 20260506093751 | 63 | 202 | 3.5 | 6.1 | 0.00 | 0.00 | 0.00 | 80 | 1009.0 |
| 20260506092738 | 64 | 154 | 3.5 | 8.7 | 0.00 | 0.00 | 0.00 | 80 | 1008.7 |
| 20260506091724 | 64 | 206 | 3.5 | 6.1 | 0.00 | 0.00 | 0.00 | 79 | 1008.9 |
| 20260506090713 | 64 | 145 | 1.7 | 7.8 | 0.00 | 0.00 | 0.00 | 79 | 1008.9 |
| 20260506085656 | 64 | 163 | 3.5 | 7.8 | 0.00 | 0.00 | 0.00 | 79 | 1009.0 |
| 20260506085146 | 64 | 193 | 1.7 | 7.0 | 0.00 | 0.00 | 0.00 | 79 | 1009.0 |
| 20260506084132 | 64 | 187 | 1.7 | 11.3 | 0.00 | 0.00 | 0.00 | 78 | 1009.0 |
| 20260506083138 | 65 | 181 | 1.7 | 7.8 | 0.00 | 0.00 | 0.00 | 78 | 1009.0 |
| 20260506082106 | 65 | 188 | 4.3 | 7.8 | 0.00 | 0.00 | 0.00 | 78 | 1008.9 |
| 20260506081051 | 65 | 190 | 1.7 | 6.1 | 0.00 | 0.00 | 0.00 | 77 | 1009.0 |
| 20260506072956 | 66 | 201 | 0.9 | 7.8 | 0.00 | 0.00 | 0.00 | 75 | 1009.1 |
| 20260506071942 | 66 | 219 | 2.6 | 8.7 | 0.00 | 0.00 | 0.00 | 74 | 1009.1 |
| 20260506070928 | 66 | 198 | 0.9 | 5.2 | 0.00 | 0.00 | 0.00 | 73 | 1009.2 |
| 20260506061821 | 66 | 203 | 4.3 | 7.0 | 0.00 | 0.00 | 0.00 | 72 | 1009.5 |
| 20260506060806 | 66 | 211 | 2.6 | 6.1 | 0.00 | 0.00 | 0.00 | 72 | 1009.6 |
| 20260506050707 | 66 | 182 | 4.3 | 6.1 | 0.00 | 0.00 | 0.00 | 70 | 1010.0 |
| 20260506044620 | 67 | 173 | 3.5 | 5.2 | 0.00 | 0.00 | 0.00 | 69 | 1010.1 |
| 20260506043605 | 67 | 178 | 4.3 | 5.2 | 0.00 | 0.00 | 0.00 | 69 | 1010.2 |
| 20260506042613 | 67 | 185 | 5.2 | 11.3 | 0.00 | 0.00 | 0.00 | 68 | 1010.2 |
| 20260506041557 | 67 | 179 | 2.6 | 8.7 | 0.00 | 0.00 | 0.00 | 67 | 1010.0 |